Location: Newark
(58.8333°N, 23.5833°E)
Time: 20:21:17
(UTC+00:00)

S-56A Canister/Altair - Pass Details

Date: 25 November 2019
Orbit: 633 x 2499 km, 38.9° (Epoch: 06 December)

Event Time Altitude Azimuth Distance (km) Brightness Sun altitude
Rises 16:15:55 0° 248° (WSW) 5,288 13.4 -18.1°
Reaches altitude 10° 16:21:03 10° 233° (SW) 3,912 12.0 -18.7°
Maximum altitude 16:27:02 18° 195° (SSW) 2,826 10.6 -19.5°
Drops below altitude 10° 16:31:50 10° 155° (SSE) 3,005 10.4 -20.1°
Enters shadow 16:33:29 - 144° (SE) 3,306 10.5 -20.3°
